Data supplied by UK-AIR on 20/5/2021
All Data GMT hour ending 
Status: R =Ratified P=Provisional,P*=As supplied
,,Lough Navar,,,,,,,,,,,,,,,,,,,,,,,
Date,time,"PM<sub>10</sub> particulate matter (Hourly measured)",status,unit,"Ozone",status,unit,"PM<sub>2.5</sub> particulate matter (Hourly measured)",status,unit
 
01-01-2020,01:00,9.725,R,ugm-3 (FIDAS),20.35614,R,ugm-3,7.830,R,ugm-3 (Ref.eq)
01-01-2020,02:00,9.250,R,ugm-3 (FIDAS),33.79385,R,ugm-3,7.264,R,ugm-3 (Ref.eq)
01-01-2020,03:00,8.800,R,ugm-3 (FIDAS),33.12862,R,ugm-3,6.509,R,ugm-3 (Ref.eq)
01-01-2020,04:00,8.925,R,ugm-3 (FIDAS),36.17206,R,ugm-3,6.981,R,ugm-3 (Ref.eq)
01-01-2020,05:00,10.175,R,ugm-3 (FIDAS),37.31959,R,ugm-3,8.042,R,ugm-3 (Ref.eq)
01-01-2020,06:00,11.325,R,ugm-3 (FIDAS),42.85766,R,ugm-3,9.363,R,ugm-3 (Ref.eq)
01-01-2020,07:00,9.125,R,ugm-3 (FIDAS),47.09852,R,ugm-3,7.005,R,ugm-3 (Ref.eq)
01-01-2020,08:00,8.600,R,ugm-3 (FIDAS),50.04218,R,ugm-3,6.958,R,ugm-3 (Ref.eq)
01-01-2020,09:00,7.875,R,ugm-3 (FIDAS),52.03788,R,ugm-3,6.274,R,ugm-3 (Ref.eq)
01-01-2020,10:00,7.700,R,ugm-3 (FIDAS),51.88820,R,ugm-3,6.226,R,ugm-3 (Ref.eq)
01-01-2020,11:00,7.575,R,ugm-3 (FIDAS),51.23960,R,ugm-3,5.613,R,ugm-3 (Ref.eq)
01-01-2020,12:00,7.125,R,ugm-3 (FIDAS),53.43487,R,ugm-3,5.495,R,ugm-3 (Ref.eq)
01-01-2020,13:00,7.300,R,ugm-3 (FIDAS),56.47831,R,ugm-3,5.637,R,ugm-3 (Ref.eq)
01-01-2020,14:00,7.025,R,ugm-3 (FIDAS),57.52605,R,ugm-3,4.929,R,ugm-3 (Ref.eq)
01-01-2020,15:00,7.100,R,ugm-3 (FIDAS),55.08132,R,ugm-3,5.047,R,ugm-3 (Ref.eq)
01-01-2020,16:00,7.375,R,ugm-3 (FIDAS),57.12691,R,ugm-3,4.882,R,ugm-3 (Ref.eq)
01-01-2020,17:00,7.650,R,ugm-3 (FIDAS),56.82756,R,ugm-3,5.236,R,ugm-3 (Ref.eq)
01-01-2020,18:00,7.725,R,ugm-3 (FIDAS),53.18541,R,ugm-3,5.613,R,ugm-3 (Ref.eq)
01-01-2020,19:00,8.550,R,ugm-3 (FIDAS),49.49336,R,ugm-3,5.920,R,ugm-3 (Ref.eq)
01-01-2020,20:00,9.675,R,ugm-3 (FIDAS),43.30669,R,ugm-3,7.005,R,ugm-3 (Ref.eq)
01-01-2020,21:00,9.200,R,ugm-3 (FIDAS),51.28949,R,ugm-3,5.731,R,ugm-3 (Ref.eq)
01-01-2020,22:00,8.650,R,ugm-3 (FIDAS),53.78412,R,ugm-3,5.283,R,ugm-3 (Ref.eq)
01-01-2020,23:00,8.675,R,ugm-3 (FIDAS),58.27444,R,ugm-3,4.764,R,ugm-3 (Ref.eq)
01-01-2020,24:00,7.825,R,ugm-3 (FIDAS),58.57380,R,ugm-3,4.599,R,ugm-3 (Ref.eq)
02-01-2020,01:00,8.075,R,ugm-3 (FIDAS),59.60491,R,ugm-3,4.151,R,ugm-3 (Ref.eq)
02-01-2020,02:00,6.900,R,ugm-3 (FIDAS),61.40104,R,ugm-3,3.491,R,ugm-3 (Ref.eq)
02-01-2020,03:00,4.925,R,ugm-3 (FIDAS),63.06412,R,ugm-3,2.476,R,ugm-3 (Ref.eq)
02-01-2020,04:00,5.100,R,ugm-3 (FIDAS),64.31143,R,ugm-3,2.594,R,ugm-3 (Ref.eq)
02-01-2020,05:00,6.675,R,ugm-3 (FIDAS),65.55875,R,ugm-3,3.302,R,ugm-3 (Ref.eq)
02-01-2020,06:00,6.800,R,ugm-3 (FIDAS),65.70842,R,ugm-3,3.231,R,ugm-3 (Ref.eq)
02-01-2020,07:00,5.475,R,ugm-3 (FIDAS),66.80606,R,ugm-3,2.500,R,ugm-3 (Ref.eq)
02-01-2020,08:00,3.325,R,ugm-3 (FIDAS),63.76262,R,ugm-3,1.509,R,ugm-3 (Ref.eq)
02-01-2020,09:00,2.150,R,ugm-3 (FIDAS),63.06412,R,ugm-3,0.825,R,ugm-3 (Ref.eq)
02-01-2020,10:00,2.175,R,ugm-3 (FIDAS),62.31573,R,ugm-3,0.802,R,ugm-3 (Ref.eq)
02-01-2020,11:00,2.525,R,ugm-3 (FIDAS),61.91659,R,ugm-3,0.802,R,ugm-3 (Ref.eq)
02-01-2020,12:00,1.750,R,ugm-3 (FIDAS),61.31788,R,ugm-3,0.873,R,ugm-3 (Ref.eq)
02-01-2020,13:00,2.600,R,ugm-3 (FIDAS),63.91229,R,ugm-3,1.274,R,ugm-3 (Ref.eq)
02-01-2020,14:00,6.475,R,ugm-3 (FIDAS),65.65853,R,ugm-3,3.632,R,ugm-3 (Ref.eq)
02-01-2020,15:00,6.400,R,ugm-3 (FIDAS),66.70627,R,ugm-3,3.491,R,ugm-3 (Ref.eq)
02-01-2020,16:00,5.425,R,ugm-3 (FIDAS),67.90369,R,ugm-3,2.877,R,ugm-3 (Ref.eq)
02-01-2020,17:00,7.875,R,ugm-3 (FIDAS),67.20520,R,ugm-3,5.259,R,ugm-3 (Ref.eq)
02-01-2020,18:00,6.675,R,ugm-3 (FIDAS),64.21165,R,ugm-3,4.292,R,ugm-3 (Ref.eq)
02-01-2020,19:00,2.650,R,ugm-3 (FIDAS),62.11616,R,ugm-3,1.675,R,ugm-3 (Ref.eq)
02-01-2020,20:00,1.575,R,ugm-3 (FIDAS),61.56735,R,ugm-3,0.991,R,ugm-3 (Ref.eq)
02-01-2020,21:00,2.275,R,ugm-3 (FIDAS),77.03402,R,ugm-3,1.415,R,ugm-3 (Ref.eq)
02-01-2020,22:00,5.800,R,ugm-3 (FIDAS),77.43316,R,ugm-3,3.090,R,ugm-3 (Ref.eq)
02-01-2020,23:00,16.200,R,ugm-3 (FIDAS),74.04047,R,ugm-3,7.335,R,ugm-3 (Ref.eq)
02-01-2020,24:00,15.725,R,ugm-3 (FIDAS),61.76692,R,ugm-3,7.429,R,ugm-3 (Ref.eq)
03-01-2020,01:00,13.325,R,ugm-3 (FIDAS),53.81738,R,ugm-3,6.109,R,ugm-3 (Ref.eq)
03-01-2020,02:00,14.825,R,ugm-3 (FIDAS),66.19072,R,ugm-3,6.415,R,ugm-3 (Ref.eq)
03-01-2020,03:00,9.375,R,ugm-3 (FIDAS),74.58929,R,ugm-3,4.670,R,ugm-3 (Ref.eq)
03-01-2020,04:00,10.950,R,ugm-3 (FIDAS),68.10326,R,ugm-3,4.835,R,ugm-3 (Ref.eq)
03-01-2020,05:00,12.275,R,ugm-3 (FIDAS),71.34628,R,ugm-3,5.495,R,ugm-3 (Ref.eq)
03-01-2020,06:00,10.325,R,ugm-3 (FIDAS),51.83831,R,ugm-3,4.599,R,ugm-3 (Ref.eq)
03-01-2020,07:00,7.600,R,ugm-3 (FIDAS),58.47401,R,ugm-3,3.443,R,ugm-3 (Ref.eq)
03-01-2020,08:00,7.025,R,ugm-3 (FIDAS),57.87530,R,ugm-3,3.208,R,ugm-3 (Ref.eq)
03-01-2020,09:00,8.800,R,ugm-3 (FIDAS),49.29379,R,ugm-3,3.726,R,ugm-3 (Ref.eq)
03-01-2020,10:00,8.825,R,ugm-3 (FIDAS),52.73637,R,ugm-3,4.009,R,ugm-3 (Ref.eq)
03-01-2020,11:00,12.925,R,ugm-3 (FIDAS),63.26369,R,ugm-3,5.755,R,ugm-3 (Ref.eq)
03-01-2020,12:00,16.725,R,ugm-3 (FIDAS),72.89294,R,ugm-3,6.769,R,ugm-3 (Ref.eq)
03-01-2020,13:00,13.875,R,ugm-3 (FIDAS),73.39187,R,ugm-3,6.321,R,ugm-3 (Ref.eq)
03-01-2020,14:00,12.225,R,ugm-3 (FIDAS),73.79101,R,ugm-3,5.566,R,ugm-3 (Ref.eq)
03-01-2020,15:00,11.575,R,ugm-3 (FIDAS),73.79101,R,ugm-3,5.047,R,ugm-3 (Ref.eq)
03-01-2020,16:00,14.350,R,ugm-3 (FIDAS),69.64993,R,ugm-3,6.368,R,ugm-3 (Ref.eq)
03-01-2020,17:00,12.250,R,ugm-3 (FIDAS),64.11186,R,ugm-3,6.038,R,ugm-3 (Ref.eq)
03-01-2020,18:00,13.650,R,ugm-3 (FIDAS),61.16821,R,ugm-3,7.359,R,ugm-3 (Ref.eq)
03-01-2020,19:00,14.575,R,ugm-3 (FIDAS),64.46111,R,ugm-3,7.948,R,ugm-3 (Ref.eq)
03-01-2020,20:00,10.525,R,ugm-3 (FIDAS),70.59789,R,ugm-3,5.354,R,ugm-3 (Ref.eq)
03-01-2020,21:00,12.900,R,ugm-3 (FIDAS),62.56520,R,ugm-3,6.156,R,ugm-3 (Ref.eq)
03-01-2020,22:00,15.550,R,ugm-3 (FIDAS),60.86885,R,ugm-3,7.288,R,ugm-3 (Ref.eq)
03-01-2020,23:00,10.400,R,ugm-3 (FIDAS),66.35703,R,ugm-3,5.000,R,ugm-3 (Ref.eq)
03-01-2020,24:00,10.375,R,ugm-3 (FIDAS),65.20950,R,ugm-3,5.566,R,ugm-3 (Ref.eq)
04-01-2020,01:00,5.400,R,ugm-3 (FIDAS),66.98900,R,ugm-3,2.807,R,ugm-3 (Ref.eq)
04-01-2020,02:00,5.650,R,ugm-3 (FIDAS),68.85165,R,ugm-3,2.642,R,ugm-3 (Ref.eq)
04-01-2020,03:00,5.125,R,ugm-3 (FIDAS),69.99918,R,ugm-3,2.382,R,ugm-3 (Ref.eq)
04-01-2020,04:00,4.225,R,ugm-3 (FIDAS),67.65423,R,ugm-3,2.123,R,ugm-3 (Ref.eq)
04-01-2020,05:00,3.625,R,ugm-3 (FIDAS),63.41337,R,ugm-3,1.722,R,ugm-3 (Ref.eq)
04-01-2020,06:00,4.200,R,ugm-3 (FIDAS),60.27014,R,ugm-3,1.981,R,ugm-3 (Ref.eq)
04-01-2020,07:00,4.025,R,ugm-3 (FIDAS),64.26154,R,ugm-3,1.958,R,ugm-3 (Ref.eq)
04-01-2020,08:00,4.950,R,ugm-3 (FIDAS),64.66068,R,ugm-3,2.123,R,ugm-3 (Ref.eq)
04-01-2020,09:00,2.875,R,ugm-3 (FIDAS),59.72132,R,ugm-3,1.321,R,ugm-3 (Ref.eq)
04-01-2020,10:00,4.225,R,ugm-3 (FIDAS),59.82111,R,ugm-3,1.769,R,ugm-3 (Ref.eq)
04-01-2020,11:00,5.400,R,ugm-3 (FIDAS),59.92089,R,ugm-3,3.066,R,ugm-3 (Ref.eq)
04-01-2020,12:00,4.975,R,ugm-3 (FIDAS),60.86885,R,ugm-3,2.759,R,ugm-3 (Ref.eq)
04-01-2020,13:00,5.950,R,ugm-3 (FIDAS),67.10541,R,ugm-3,3.160,R,ugm-3 (Ref.eq)
04-01-2020,14:00,7.150,R,ugm-3 (FIDAS),63.76262,R,ugm-3,4.717,R,ugm-3 (Ref.eq)
04-01-2020,15:00,3.425,R,ugm-3 (FIDAS),58.62369,R,ugm-3,1.840,R,ugm-3 (Ref.eq)
04-01-2020,16:00,8.100,R,ugm-3 (FIDAS),61.81681,R,ugm-3,6.486,R,ugm-3 (Ref.eq)
04-01-2020,17:00,6.775,R,ugm-3 (FIDAS),59.97079,R,ugm-3,5.330,R,ugm-3 (Ref.eq)
04-01-2020,18:00,5.125,R,ugm-3 (FIDAS),57.42627,R,ugm-3,4.245,R,ugm-3 (Ref.eq)
04-01-2020,19:00,4.225,R,ugm-3 (FIDAS),57.72562,R,ugm-3,3.443,R,ugm-3 (Ref.eq)
04-01-2020,20:00,5.350,R,ugm-3 (FIDAS),61.51745,R,ugm-3,4.458,R,ugm-3 (Ref.eq)
04-01-2020,21:00,3.400,R,ugm-3 (FIDAS),64.56090,R,ugm-3,2.642,R,ugm-3 (Ref.eq)
04-01-2020,22:00,4.950,R,ugm-3 (FIDAS),66.00778,R,ugm-3,3.514,R,ugm-3 (Ref.eq)
04-01-2020,23:00,3.000,R,ugm-3 (FIDAS),66.50670,R,ugm-3,1.934,R,ugm-3 (Ref.eq)
04-01-2020,24:00,1.650,R,ugm-3 (FIDAS),68.25294,R,ugm-3,0.896,R,ugm-3 (Ref.eq)
05-01-2020,01:00,1.475,R,ugm-3 (FIDAS),72.51043,R,ugm-3,0.778,R,ugm-3 (Ref.eq)
05-01-2020,02:00,1.475,R,ugm-3 (FIDAS),77.63273,R,ugm-3,0.684,R,ugm-3 (Ref.eq)
05-01-2020,03:00,2.125,R,ugm-3 (FIDAS),75.83660,R,ugm-3,0.802,R,ugm-3 (Ref.eq)
05-01-2020,04:00,2.675,R,ugm-3 (FIDAS),73.74112,R,ugm-3,1.061,R,ugm-3 (Ref.eq)
05-01-2020,05:00,3.450,R,ugm-3 (FIDAS),63.06412,R,ugm-3,1.203,R,ugm-3 (Ref.eq)
05-01-2020,06:00,3.375,R,ugm-3 (FIDAS),69.40047,R,ugm-3,1.651,R,ugm-3 (Ref.eq)
05-01-2020,07:00,3.175,R,ugm-3 (FIDAS),71.74542,R,ugm-3,1.533,R,ugm-3 (Ref.eq)
05-01-2020,08:00,2.925,R,ugm-3 (FIDAS),68.35273,R,ugm-3,1.344,R,ugm-3 (Ref.eq)
05-01-2020,09:00,1.575,R,ugm-3 (FIDAS),66.35703,R,ugm-3,0.542,R,ugm-3 (Ref.eq)
05-01-2020,10:00,0.800,R,ugm-3 (FIDAS),61.81681,R,ugm-3,0.307,R,ugm-3 (Ref.eq)
05-01-2020,11:00,0.625,R,ugm-3 (FIDAS),61.01853,R,ugm-3,0.236,R,ugm-3 (Ref.eq)
05-01-2020,12:00,0.900,R,ugm-3 (FIDAS),61.01853,R,ugm-3,0.307,R,ugm-3 (Ref.eq)
05-01-2020,13:00,1.075,R,ugm-3 (FIDAS),64.21165,R,ugm-3,0.542,R,ugm-3 (Ref.eq)
05-01-2020,14:00,1.750,R,ugm-3 (FIDAS),66.55660,R,ugm-3,1.156,R,ugm-3 (Ref.eq)
05-01-2020,15:00,1.825,R,ugm-3 (FIDAS),65.10971,R,ugm-3,0.991,R,ugm-3 (Ref.eq)
05-01-2020,16:00,3.200,R,ugm-3 (FIDAS),66.25724,R,ugm-3,1.557,R,ugm-3 (Ref.eq)
05-01-2020,17:00,3.625,R,ugm-3 (FIDAS),70.19875,R,ugm-3,1.910,R,ugm-3 (Ref.eq)
05-01-2020,18:00,3.775,R,ugm-3 (FIDAS),68.60219,R,ugm-3,1.745,R,ugm-3 (Ref.eq)
05-01-2020,19:00,7.675,R,ugm-3 (FIDAS),63.91229,R,ugm-3,3.396,R,ugm-3 (Ref.eq)
05-01-2020,20:00,3.500,R,ugm-3 (FIDAS),61.66713,R,ugm-3,1.816,R,ugm-3 (Ref.eq)
05-01-2020,21:00,2.750,R,ugm-3 (FIDAS),64.31143,R,ugm-3,1.462,R,ugm-3 (Ref.eq)
05-01-2020,22:00,2.200,R,ugm-3 (FIDAS),68.50240,R,ugm-3,1.344,R,ugm-3 (Ref.eq)
05-01-2020,23:00,1.275,R,ugm-3 (FIDAS),72.34413,R,ugm-3,0.943,R,ugm-3 (Ref.eq)
05-01-2020,24:00,1.625,R,ugm-3 (FIDAS),72.09466,R,ugm-3,1.014,R,ugm-3 (Ref.eq)
06-01-2020,01:00,1.900,R,ugm-3 (FIDAS),71.57911,R,ugm-3,1.061,R,ugm-3 (Ref.eq)
06-01-2020,02:00,2.550,R,ugm-3 (FIDAS),,,,1.462,R,ugm-3 (Ref.eq)
06-01-2020,03:00,3.200,R,ugm-3 (FIDAS),77.88219,R,ugm-3,1.557,R,ugm-3 (Ref.eq)
06-01-2020,04:00,2.650,R,ugm-3 (FIDAS),80.22714,R,ugm-3,1.368,R,ugm-3 (Ref.eq)
06-01-2020,05:00,3.025,R,ugm-3 (FIDAS),79.22929,R,ugm-3,1.321,R,ugm-3 (Ref.eq)
06-01-2020,06:00,2.850,R,ugm-3 (FIDAS),78.03187,R,ugm-3,1.557,R,ugm-3 (Ref.eq)
06-01-2020,07:00,2.900,R,ugm-3 (FIDAS),75.33768,R,ugm-3,1.486,R,ugm-3 (Ref.eq)
06-01-2020,08:00,2.975,R,ugm-3 (FIDAS),73.09251,R,ugm-3,1.651,R,ugm-3 (Ref.eq)
06-01-2020,09:00,2.000,R,ugm-3 (FIDAS),72.04477,R,ugm-3,1.203,R,ugm-3 (Ref.eq)
06-01-2020,10:00,1.625,R,ugm-3 (FIDAS),71.79531,R,ugm-3,0.825,R,ugm-3 (Ref.eq)
06-01-2020,11:00,2.450,R,ugm-3 (FIDAS),65.10971,R,ugm-3,1.203,R,ugm-3 (Ref.eq)
06-01-2020,12:00,9.025,R,ugm-3 (FIDAS),66.05767,R,ugm-3,4.599,R,ugm-3 (Ref.eq)
06-01-2020,13:00,12.150,R,ugm-3 (FIDAS),68.75187,R,ugm-3,6.226,R,ugm-3 (Ref.eq)
06-01-2020,14:00,8.875,R,ugm-3 (FIDAS),68.90154,R,ugm-3,4.363,R,ugm-3 (Ref.eq)
06-01-2020,15:00,10.675,R,ugm-3 (FIDAS),68.45251,R,ugm-3,5.212,R,ugm-3 (Ref.eq)
06-01-2020,16:00,10.725,R,ugm-3 (FIDAS),71.74542,R,ugm-3,5.495,R,ugm-3 (Ref.eq)
06-01-2020,17:00,14.350,R,ugm-3 (FIDAS),66.40692,R,ugm-3,6.816,R,ugm-3 (Ref.eq)
06-01-2020,18:00,17.925,R,ugm-3 (FIDAS),59.77122,R,ugm-3,9.859,R,ugm-3 (Ref.eq)
06-01-2020,19:00,15.675,R,ugm-3 (FIDAS),33.57765,R,ugm-3,8.349,R,ugm-3 (Ref.eq)
06-01-2020,20:00,11.325,R,ugm-3 (FIDAS),16.46453,R,ugm-3,5.165,R,ugm-3 (Ref.eq)
06-01-2020,21:00,8.750,R,ugm-3 (FIDAS),10.17807,R,ugm-3,4.222,R,ugm-3 (Ref.eq)
06-01-2020,22:00,10.600,R,ugm-3 (FIDAS),16.86367,R,ugm-3,5.259,R,ugm-3 (Ref.eq)
06-01-2020,23:00,11.625,R,ugm-3 (FIDAS),27.98969,R,ugm-3,6.014,R,ugm-3 (Ref.eq)
06-01-2020,24:00,19.875,R,ugm-3 (FIDAS),58.12476,R,ugm-3,9.363,R,ugm-3 (Ref.eq)
07-01-2020,01:00,17.700,R,ugm-3 (FIDAS),60.20362,R,ugm-3,8.491,R,ugm-3 (Ref.eq)
07-01-2020,02:00,15.800,R,ugm-3 (FIDAS),59.60491,R,ugm-3,7.854,R,ugm-3 (Ref.eq)
07-01-2020,03:00,13.675,R,ugm-3 (FIDAS),60.22025,R,ugm-3,7.241,R,ugm-3 (Ref.eq)
07-01-2020,04:00,13.750,R,ugm-3 (FIDAS),63.91229,R,ugm-3,6.910,R,ugm-3 (Ref.eq)
07-01-2020,05:00,13.300,R,ugm-3 (FIDAS),64.66068,R,ugm-3,6.745,R,ugm-3 (Ref.eq)
07-01-2020,06:00,9.125,R,ugm-3 (FIDAS),68.15316,R,ugm-3,5.165,R,ugm-3 (Ref.eq)
07-01-2020,07:00,8.750,R,ugm-3 (FIDAS),65.50885,R,ugm-3,4.906,R,ugm-3 (Ref.eq)
07-01-2020,08:00,4.925,R,ugm-3 (FIDAS),63.31358,R,ugm-3,3.019,R,ugm-3 (Ref.eq)
07-01-2020,09:00,1.825,R,ugm-3 (FIDAS),61.96649,R,ugm-3,1.226,R,ugm-3 (Ref.eq)
07-01-2020,10:00,1.125,R,ugm-3 (FIDAS),60.81896,R,ugm-3,0.684,R,ugm-3 (Ref.eq)
07-01-2020,11:00,1.300,R,ugm-3 (FIDAS),60.17036,R,ugm-3,0.613,R,ugm-3 (Ref.eq)
07-01-2020,12:00,1.050,R,ugm-3 (FIDAS),58.72347,R,ugm-3,0.542,R,ugm-3 (Ref.eq)
07-01-2020,13:00,0.800,R,ugm-3 (FIDAS),60.12046,R,ugm-3,0.354,R,ugm-3 (Ref.eq)
07-01-2020,14:00,1.575,R,ugm-3 (FIDAS),63.26369,R,ugm-3,1.061,R,ugm-3 (Ref.eq)
07-01-2020,15:00,1.100,R,ugm-3 (FIDAS),62.51530,R,ugm-3,0.448,R,ugm-3 (Ref.eq)
07-01-2020,16:00,1.600,R,ugm-3 (FIDAS),61.71702,R,ugm-3,0.825,R,ugm-3 (Ref.eq)
07-01-2020,17:00,8.450,R,ugm-3 (FIDAS),67.30498,R,ugm-3,4.670,R,ugm-3 (Ref.eq)
07-01-2020,18:00,26.950,R,ugm-3 (FIDAS),71.69552,R,ugm-3,15.613,R,ugm-3 (Ref.eq)
07-01-2020,19:00,30.750,R,ugm-3 (FIDAS),68.65208,R,ugm-3,17.736,R,ugm-3 (Ref.eq)
07-01-2020,20:00,29.100,R,ugm-3 (FIDAS),68.25294,R,ugm-3,16.887,R,ugm-3 (Ref.eq)
07-01-2020,21:00,22.450,R,ugm-3 (FIDAS),65.70842,R,ugm-3,12.948,R,ugm-3 (Ref.eq)
07-01-2020,22:00,19.175,R,ugm-3 (FIDAS),72.39402,R,ugm-3,9.481,R,ugm-3 (Ref.eq)
07-01-2020,23:00,20.075,R,ugm-3 (FIDAS),77.83230,R,ugm-3,9.835,R,ugm-3 (Ref.eq)
07-01-2020,24:00,15.325,R,ugm-3 (FIDAS),78.78026,R,ugm-3,8.090,R,ugm-3 (Ref.eq)
08-01-2020,01:00,15.300,R,ugm-3 (FIDAS),79.42886,R,ugm-3,7.948,R,ugm-3 (Ref.eq)
08-01-2020,02:00,18.550,R,ugm-3 (FIDAS),80.16062,R,ugm-3,9.646,R,ugm-3 (Ref.eq)
08-01-2020,03:00,23.375,R,ugm-3 (FIDAS),79.92779,R,ugm-3,11.675,R,ugm-3 (Ref.eq)
08-01-2020,04:00,14.250,R,ugm-3 (FIDAS),78.43101,R,ugm-3,7.618,R,ugm-3 (Ref.eq)
08-01-2020,05:00,15.450,R,ugm-3 (FIDAS),68.10326,R,ugm-3,7.288,R,ugm-3 (Ref.eq)
08-01-2020,06:00,13.450,R,ugm-3 (FIDAS),67.95359,R,ugm-3,6.627,R,ugm-3 (Ref.eq)
08-01-2020,07:00,13.175,R,ugm-3 (FIDAS),62.91444,R,ugm-3,6.297,R,ugm-3 (Ref.eq)
08-01-2020,08:00,11.800,R,ugm-3 (FIDAS),65.30928,R,ugm-3,5.920,R,ugm-3 (Ref.eq)
08-01-2020,09:00,8.200,R,ugm-3 (FIDAS),53.33508,R,ugm-3,4.458,R,ugm-3 (Ref.eq)
08-01-2020,10:00,8.200,R,ugm-3 (FIDAS),27.44088,R,ugm-3,4.599,R,ugm-3 (Ref.eq)
08-01-2020,11:00,9.550,R,ugm-3 (FIDAS),53.43487,R,ugm-3,5.189,R,ugm-3 (Ref.eq)
08-01-2020,12:00,8.125,R,ugm-3 (FIDAS),56.32863,R,ugm-3,3.962,R,ugm-3 (Ref.eq)
08-01-2020,13:00,10.550,R,ugm-3 (FIDAS),62.31573,R,ugm-3,5.566,R,ugm-3 (Ref.eq)
08-01-2020,14:00,8.800,R,ugm-3 (FIDAS),60.12046,R,ugm-3,4.410,R,ugm-3 (Ref.eq)
08-01-2020,15:00,9.200,R,ugm-3 (FIDAS),58.12476,R,ugm-3,4.623,R,ugm-3 (Ref.eq)
08-01-2020,16:00,15.525,R,ugm-3 (FIDAS),41.06153,R,ugm-3,11.274,R,ugm-3 (Ref.eq)
08-01-2020,17:00,7.675,R,ugm-3 (FIDAS),24.84647,R,ugm-3,3.797,R,ugm-3 (Ref.eq)
08-01-2020,18:00,7.700,R,ugm-3 (FIDAS),9.28001,R,ugm-3,4.646,R,ugm-3 (Ref.eq)
08-01-2020,19:00,5.750,R,ugm-3 (FIDAS),5.58796,R,ugm-3,3.137,R,ugm-3 (Ref.eq)
08-01-2020,20:00,5.775,R,ugm-3 (FIDAS),4.24086,R,ugm-3,3.467,R,ugm-3 (Ref.eq)
08-01-2020,21:00,6.175,R,ugm-3 (FIDAS),6.18667,R,ugm-3,3.986,R,ugm-3 (Ref.eq)
08-01-2020,22:00,6.600,R,ugm-3 (FIDAS),5.93721,R,ugm-3,3.915,R,ugm-3 (Ref.eq)
08-01-2020,23:00,13.050,R,ugm-3 (FIDAS),17.56216,R,ugm-3,8.656,R,ugm-3 (Ref.eq)
08-01-2020,24:00,14.175,R,ugm-3 (FIDAS),17.21291,R,ugm-3,10.660,R,ugm-3 (Ref.eq)
09-01-2020,01:00,13.100,R,ugm-3 (FIDAS),10.90983,R,ugm-3,10.000,R,ugm-3 (Ref.eq)
09-01-2020,02:00,8.300,R,ugm-3 (FIDAS),55.34741,R,ugm-3,5.590,R,ugm-3 (Ref.eq)
09-01-2020,03:00,4.875,R,ugm-3 (FIDAS),65.60864,R,ugm-3,3.160,R,ugm-3 (Ref.eq)
09-01-2020,04:00,4.925,R,ugm-3 (FIDAS),56.77767,R,ugm-3,3.255,R,ugm-3 (Ref.eq)
09-01-2020,05:00,4.625,R,ugm-3 (FIDAS),45.15271,R,ugm-3,3.231,R,ugm-3 (Ref.eq)
09-01-2020,06:00,4.125,R,ugm-3 (FIDAS),34.37593,R,ugm-3,2.759,R,ugm-3 (Ref.eq)
09-01-2020,07:00,3.450,R,ugm-3 (FIDAS),28.38883,R,ugm-3,2.241,R,ugm-3 (Ref.eq)
09-01-2020,08:00,3.050,R,ugm-3 (FIDAS),22.45163,R,ugm-3,1.934,R,ugm-3 (Ref.eq)
09-01-2020,09:00,2.900,R,ugm-3 (FIDAS),19.65765,R,ugm-3,1.745,R,ugm-3 (Ref.eq)
09-01-2020,10:00,2.225,R,ugm-3 (FIDAS),8.63140,R,ugm-3,1.392,R,ugm-3 (Ref.eq)
09-01-2020,11:00,2.500,R,ugm-3 (FIDAS),5.53807,R,ugm-3,1.462,R,ugm-3 (Ref.eq)
09-01-2020,12:00,3.350,R,ugm-3 (FIDAS),38.61680,R,ugm-3,2.193,R,ugm-3 (Ref.eq)
09-01-2020,13:00,3.425,R,ugm-3 (FIDAS),39.11572,R,ugm-3,2.264,R,ugm-3 (Ref.eq)
09-01-2020,14:00,2.600,R,ugm-3 (FIDAS),45.80132,R,ugm-3,1.816,R,ugm-3 (Ref.eq)
09-01-2020,15:00,3.175,R,ugm-3 (FIDAS),51.63874,R,ugm-3,2.429,R,ugm-3 (Ref.eq)
09-01-2020,16:00,3.175,R,ugm-3 (FIDAS),32.33034,R,ugm-3,1.722,R,ugm-3 (Ref.eq)
09-01-2020,17:00,6.500,R,ugm-3 (FIDAS),10.52732,R,ugm-3,4.717,R,ugm-3 (Ref.eq)
09-01-2020,18:00,2.950,R,ugm-3 (FIDAS),9.52947,R,ugm-3,1.745,R,ugm-3 (Ref.eq)
09-01-2020,19:00,2.900,R,ugm-3 (FIDAS),15.76603,R,ugm-3,2.146,R,ugm-3 (Ref.eq)
09-01-2020,20:00,6.100,R,ugm-3 (FIDAS),42.70798,R,ugm-3,5.236,R,ugm-3 (Ref.eq)
09-01-2020,21:00,4.850,R,ugm-3 (FIDAS),48.54540,R,ugm-3,4.151,R,ugm-3 (Ref.eq)
09-01-2020,22:00,7.825,R,ugm-3 (FIDAS),44.20476,R,ugm-3,6.132,R,ugm-3 (Ref.eq)
09-01-2020,23:00,6.975,R,ugm-3 (FIDAS),36.42153,R,ugm-3,4.434,R,ugm-3 (Ref.eq)
09-01-2020,24:00,6.450,R,ugm-3 (FIDAS),31.58195,R,ugm-3,4.080,R,ugm-3 (Ref.eq)
10-01-2020,01:00,6.000,R,ugm-3 (FIDAS),38.91615,R,ugm-3,3.066,R,ugm-3 (Ref.eq)
10-01-2020,02:00,4.775,R,ugm-3 (FIDAS),21.22094,R,ugm-3,2.453,R,ugm-3 (Ref.eq)
10-01-2020,03:00,4.675,R,ugm-3 (FIDAS),20.20646,R,ugm-3,2.193,R,ugm-3 (Ref.eq)
10-01-2020,04:00,4.925,R,ugm-3 (FIDAS),26.69249,R,ugm-3,2.406,R,ugm-3 (Ref.eq)
10-01-2020,05:00,4.275,R,ugm-3 (FIDAS),22.20216,R,ugm-3,2.028,R,ugm-3 (Ref.eq)
10-01-2020,06:00,4.175,R,ugm-3 (FIDAS),14.46883,R,ugm-3,1.958,R,ugm-3 (Ref.eq)
10-01-2020,07:00,5.275,R,ugm-3 (FIDAS),17.91141,R,ugm-3,2.359,R,ugm-3 (Ref.eq)
10-01-2020,08:00,4.925,R,ugm-3 (FIDAS),21.50367,R,ugm-3,2.311,R,ugm-3 (Ref.eq)
10-01-2020,09:00,4.225,R,ugm-3 (FIDAS),23.10023,R,ugm-3,2.217,R,ugm-3 (Ref.eq)
10-01-2020,10:00,5.425,R,ugm-3 (FIDAS),22.65120,R,ugm-3,2.311,R,ugm-3 (Ref.eq)
10-01-2020,11:00,8.575,R,ugm-3 (FIDAS),66.35703,R,ugm-3,3.915,R,ugm-3 (Ref.eq)
10-01-2020,12:00,8.725,R,ugm-3 (FIDAS),71.64563,R,ugm-3,3.844,R,ugm-3 (Ref.eq)
10-01-2020,13:00,7.525,R,ugm-3 (FIDAS),70.79746,R,ugm-3,3.632,R,ugm-3 (Ref.eq)
10-01-2020,14:00,7.725,R,ugm-3 (FIDAS),71.24649,R,ugm-3,3.750,R,ugm-3 (Ref.eq)
10-01-2020,15:00,9.650,R,ugm-3 (FIDAS),69.84950,R,ugm-3,4.363,R,ugm-3 (Ref.eq)
10-01-2020,16:00,7.900,R,ugm-3 (FIDAS),66.55660,R,ugm-3,3.939,R,ugm-3 (Ref.eq)
10-01-2020,17:00,8.425,R,ugm-3 (FIDAS),67.20520,R,ugm-3,4.222,R,ugm-3 (Ref.eq)
10-01-2020,18:00,6.400,R,ugm-3 (FIDAS),66.95574,R,ugm-3,3.467,R,ugm-3 (Ref.eq)
10-01-2020,19:00,5.050,R,ugm-3 (FIDAS),65.85810,R,ugm-3,3.278,R,ugm-3 (Ref.eq)
10-01-2020,20:00,3.650,R,ugm-3 (FIDAS),63.71272,R,ugm-3,2.759,R,ugm-3 (Ref.eq)
10-01-2020,21:00,2.925,R,ugm-3 (FIDAS),64.41122,R,ugm-3,2.264,R,ugm-3 (Ref.eq)
10-01-2020,22:00,2.375,R,ugm-3 (FIDAS),64.96004,R,ugm-3,1.651,R,ugm-3 (Ref.eq)
10-01-2020,23:00,1.575,R,ugm-3 (FIDAS),63.66283,R,ugm-3,1.274,R,ugm-3 (Ref.eq)
10-01-2020,24:00,0.725,R,ugm-3 (FIDAS),63.76262,R,ugm-3,0.448,R,ugm-3 (Ref.eq)
11-01-2020,01:00,0.425,R,ugm-3 (FIDAS),64.26154,R,ugm-3,0.259,R,ugm-3 (Ref.eq)
11-01-2020,02:00,0.550,R,ugm-3 (FIDAS),64.39459,R,ugm-3,0.283,R,ugm-3 (Ref.eq)
11-01-2020,03:00,0.975,R,ugm-3 (FIDAS),64.61079,R,ugm-3,0.283,R,ugm-3 (Ref.eq)
11-01-2020,04:00,1.100,R,ugm-3 (FIDAS),65.35918,R,ugm-3,0.236,R,ugm-3 (Ref.eq)
11-01-2020,05:00,0.925,R,ugm-3 (FIDAS),66.65638,R,ugm-3,0.354,R,ugm-3 (Ref.eq)
11-01-2020,06:00,0.675,R,ugm-3 (FIDAS),66.30713,R,ugm-3,0.283,R,ugm-3 (Ref.eq)
11-01-2020,07:00,0.550,R,ugm-3 (FIDAS),64.96004,R,ugm-3,0.212,R,ugm-3 (Ref.eq)
11-01-2020,08:00,0.725,R,ugm-3 (FIDAS),64.46111,R,ugm-3,0.189,R,ugm-3 (Ref.eq)
11-01-2020,09:00,1.250,R,ugm-3 (FIDAS),79.07961,R,ugm-3,0.259,R,ugm-3 (Ref.eq)
11-01-2020,10:00,2.025,R,ugm-3 (FIDAS),78.23144,R,ugm-3,0.377,R,ugm-3 (Ref.eq)
11-01-2020,11:00,5.050,R,ugm-3 (FIDAS),75.53725,R,ugm-3,3.844,R,ugm-3 (Ref.eq)
11-01-2020,12:00,1.575,R,ugm-3 (FIDAS),74.58929,R,ugm-3,0.613,R,ugm-3 (Ref.eq)
11-01-2020,13:00,2.000,R,ugm-3 (FIDAS),76.83445,R,ugm-3,1.085,R,ugm-3 (Ref.eq)
11-01-2020,14:00,3.050,R,ugm-3 (FIDAS),75.53725,R,ugm-3,1.722,R,ugm-3 (Ref.eq)
11-01-2020,15:00,4.350,R,ugm-3 (FIDAS),74.63918,R,ugm-3,2.783,R,ugm-3 (Ref.eq)
11-01-2020,16:00,7.900,R,ugm-3 (FIDAS),70.19875,R,ugm-3,5.472,R,ugm-3 (Ref.eq)
11-01-2020,17:00,7.825,R,ugm-3 (FIDAS),69.45036,R,ugm-3,4.340,R,ugm-3 (Ref.eq)
11-01-2020,18:00,10.600,R,ugm-3 (FIDAS),63.76262,R,ugm-3,5.377,R,ugm-3 (Ref.eq)
11-01-2020,19:00,9.600,R,ugm-3 (FIDAS),56.92734,R,ugm-3,4.434,R,ugm-3 (Ref.eq)
11-01-2020,20:00,15.900,R,ugm-3 (FIDAS),49.29379,R,ugm-3,10.330,R,ugm-3 (Ref.eq)
11-01-2020,21:00,7.675,R,ugm-3 (FIDAS),27.93980,R,ugm-3,4.717,R,ugm-3 (Ref.eq)
11-01-2020,22:00,9.850,R,ugm-3 (FIDAS),19.90711,R,ugm-3,6.840,R,ugm-3 (Ref.eq)
11-01-2020,23:00,9.350,R,ugm-3 (FIDAS),31.28260,R,ugm-3,4.363,R,ugm-3 (Ref.eq)
11-01-2020,24:00,7.400,R,ugm-3 (FIDAS),18.06109,R,ugm-3,3.868,R,ugm-3 (Ref.eq)
12-01-2020,01:00,5.200,R,ugm-3 (FIDAS),11.24244,R,ugm-3,2.453,R,ugm-3 (Ref.eq)
12-01-2020,02:00,6.300,R,ugm-3 (FIDAS),16.89693,R,ugm-3,2.759,R,ugm-3 (Ref.eq)
12-01-2020,03:00,8.900,R,ugm-3 (FIDAS),52.28734,R,ugm-3,5.024,R,ugm-3 (Ref.eq)
12-01-2020,04:00,5.950,R,ugm-3 (FIDAS),57.62584,R,ugm-3,3.349,R,ugm-3 (Ref.eq)
12-01-2020,05:00,5.775,R,ugm-3 (FIDAS),54.78197,R,ugm-3,2.948,R,ugm-3 (Ref.eq)
12-01-2020,06:00,5.200,R,ugm-3 (FIDAS),57.72562,R,ugm-3,2.594,R,ugm-3 (Ref.eq)
12-01-2020,07:00,3.325,R,ugm-3 (FIDAS),56.07917,R,ugm-3,1.675,R,ugm-3 (Ref.eq)
12-01-2020,08:00,4.225,R,ugm-3 (FIDAS),56.42842,R,ugm-3,2.005,R,ugm-3 (Ref.eq)
12-01-2020,09:00,4.525,R,ugm-3 (FIDAS),66.55660,R,ugm-3,2.075,R,ugm-3 (Ref.eq)
12-01-2020,10:00,5.625,R,ugm-3 (FIDAS),58.82326,R,ugm-3,2.547,R,ugm-3 (Ref.eq)
12-01-2020,11:00,6.450,R,ugm-3 (FIDAS),51.48906,R,ugm-3,2.972,R,ugm-3 (Ref.eq)
12-01-2020,12:00,7.225,R,ugm-3 (FIDAS),57.62584,R,ugm-3,3.278,R,ugm-3 (Ref.eq)
12-01-2020,13:00,8.425,R,ugm-3 (FIDAS),57.92519,R,ugm-3,4.104,R,ugm-3 (Ref.eq)
12-01-2020,14:00,8.050,R,ugm-3 (FIDAS),59.67143,R,ugm-3,3.915,R,ugm-3 (Ref.eq)
12-01-2020,15:00,7.100,R,ugm-3 (FIDAS),56.97724,R,ugm-3,3.609,R,ugm-3 (Ref.eq)
12-01-2020,16:00,11.575,R,ugm-3 (FIDAS),56.17896,R,ugm-3,8.844,R,ugm-3 (Ref.eq)
12-01-2020,17:00,5.625,R,ugm-3 (FIDAS),51.08992,R,ugm-3,2.925,R,ugm-3 (Ref.eq)
12-01-2020,18:00,8.200,R,ugm-3 (FIDAS),50.79057,R,ugm-3,4.811,R,ugm-3 (Ref.eq)
12-01-2020,19:00,9.700,R,ugm-3 (FIDAS),55.77982,R,ugm-3,6.840,R,ugm-3 (Ref.eq)
12-01-2020,20:00,6.325,R,ugm-3 (FIDAS),56.42842,R,ugm-3,4.340,R,ugm-3 (Ref.eq)
12-01-2020,21:00,4.850,R,ugm-3 (FIDAS),59.37208,R,ugm-3,3.208,R,ugm-3 (Ref.eq)
12-01-2020,22:00,4.825,R,ugm-3 (FIDAS),60.32003,R,ugm-3,2.948,R,ugm-3 (Ref.eq)
12-01-2020,23:00,4.325,R,ugm-3 (FIDAS),60.81896,R,ugm-3,2.547,R,ugm-3 (Ref.eq)
12-01-2020,24:00,5.700,R,ugm-3 (FIDAS),60.12046,R,ugm-3,3.137,R,ugm-3 (Ref.eq)
13-01-2020,01:00,7.600,R,ugm-3 (FIDAS),60.33666,R,ugm-3,3.821,R,ugm-3 (Ref.eq)
13-01-2020,02:00,6.950,R,ugm-3 (FIDAS),,,,3.538,R,ugm-3 (Ref.eq)
13-01-2020,03:00,7.925,R,ugm-3 (FIDAS),65.10971,R,ugm-3,3.632,R,ugm-3 (Ref.eq)
13-01-2020,04:00,7.300,R,ugm-3 (FIDAS),65.95789,R,ugm-3,3.420,R,ugm-3 (Ref.eq)
13-01-2020,05:00,8.625,R,ugm-3 (FIDAS),66.75617,R,ugm-3,3.726,R,ugm-3 (Ref.eq)
13-01-2020,06:00,9.600,R,ugm-3 (FIDAS),69.25079,R,ugm-3,4.127,R,ugm-3 (Ref.eq)
13-01-2020,07:00,9.025,R,ugm-3 (FIDAS),69.35058,R,ugm-3,4.033,R,ugm-3 (Ref.eq)
13-01-2020,08:00,10.175,R,ugm-3 (FIDAS),69.25079,R,ugm-3,4.575,R,ugm-3 (Ref.eq)
13-01-2020,09:00,7.900,R,ugm-3 (FIDAS),71.74542,R,ugm-3,3.821,R,ugm-3 (Ref.eq)
13-01-2020,10:00,6.375,R,ugm-3 (FIDAS),72.44391,R,ugm-3,3.255,R,ugm-3 (Ref.eq)
13-01-2020,11:00,6.350,R,ugm-3 (FIDAS),73.59144,R,ugm-3,3.208,R,ugm-3 (Ref.eq)